This is the latest recevied weather packets stored in our database for station/object GW1601. If no packets are shown the sender has not sent any weather packets the latest 10 day(s).
| Time | Temp. | Humidity | Pressure | Rain* | Wind** | Luminosity | Snow |
|---|---|---|---|---|---|---|---|
| 1778100331 | 17.22° C | 50% | 986.4 hPa | 9.4 mm | - | - | - |
| 1778099591 | 17.22° C | 52% | 986.1 hPa | 9.4 mm | - | - | - |
| 1778096394 | 16.67° C | 58% | 986.1 hPa | 9.4 mm | - | - | - |
| 1778094943 | 18.89° C | 51% | 986.4 hPa | 9.4 mm | - | - | - |
| 1778094221 | 17.78° C | 56% | 986.7 hPa | 9.4 mm | - | - | - |
| 1778092760 | 17.22° C | 59% | 986.1 hPa | 9.4 mm | - | - | - |
| 1778089887 | 16.67° C | 69% | 986.1 hPa | 9.4 mm | - | - | - |
| 1778085586 | 15° C | 75% | 986.4 hPa | 9.4 mm | - | - | - |
| 1778084869 | 14.44° C | 81% | 986.1 hPa | 9.4 mm | - | - | - |
| 1778084146 | 15° C | 79% | 986.7 hPa | 9.4 mm | - | - | - |
| 1778080174 | 12.78° C | 87% | 985.4 hPa | 9.4 mm | - | - | - |
| 1778079791 | 12.22° C | 91% | 985.7 hPa | 9.4 mm | - | - | - |
| 1778077277 | 9.44° C | 99% | 985.4 hPa | 9.4 mm | - | - | - |
| 1778076575 | 9.44° C | 99% | 985.1 hPa | 9.4 mm | - | - | - |
| 1778074430 | 9.44° C | 99% | 984.7 hPa | 9.4 mm | - | - | - |
| 1778071906 | 8.33° C | 99% | 984.7 hPa | 9.4 mm | - | - | - |
| 1778070800 | 8.33° C | 99% | 984 hPa | 8.89 mm | - | - | - |
| 1778070435 | 8.89° C | 99% | 983.7 hPa | 8.89 mm | - | - | - |
| 1778067588 | 8.89° C | 99% | 982.7 hPa | 8.89 mm | - | - | - |
| 1778065754 | 10° C | 99% | 982.3 hPa | 8.64 mm | - | - | - |
| 1778063631 | 10.56° C | 99% | - | 8.38 mm | - | - | - |
| 1778059273 | 13.89° C | 99% | - | 7.11 mm | - | - | - |
| 1778057856 | 13.89° C | 99% | - | 6.6 mm | - | - | - |
| 1778056766 | 13.89° C | 99% | - | 6.6 mm | - | - | - |
| 1778056417 | 13.89° C | 99% | - | 6.6 mm | - | - | - |
* Rain since midnight (hover to see other rain measurements)
** Current wind speed in m/s (hover to see current wind gust speed)